Regional Weather Roundup
Issued by NWS

Home | Current Version | Previous Version | Graphics & Text | Print | Product List | Glossary On
Versions: 1 2 3 4 5 6 7 8 9 10 11 12 13 14 15 16 17 18 19 20 21 22 23 24 25 26 27 28 29 30 31 32 33 34 35 36 37 38 39 40 41 42 43 44 45 46 47 48 49 50
000
ASUS43 KTOP 222359
RWRKS

WEATHER ROUNDUP FOR KANSAS
NATIONAL WEATHER SERVICE GOODLAND KS
600 PM CST MON DEC 22 2014

NOTE:  "FAIR" INDICATES FEW OR NO CLOUDS BELOW 12,000 FEET WITH NO
SIGNIFICANT WEATHER AND/OR OBSTRUCTIONS TO VISIBILITY.

KSZ001>006-013>018-027>032-041>047-230100-
NORTHWEST KANSAS

CITY           SKY/WX    TMP DP  RH WIND       PRES   REMARKS
GOODLAND       PTCLDY    35  24  64 NW13      29.66R WCI  26
6HR MIN TEMP:  35; 6HR MAX TEMP:  48;

HAYS           CLEAR     46  21  36 NW17      29.59R
HILL CITY      CLEAR     43  23  45 NW12      29.59R
6HR MIN TEMP:  43; 6HR MAX TEMP:  53; 6HR PCP: TRACE;

RUSSELL        PTCLDY    46  27  47 NW13      29.56R
6HR MIN TEMP:  46; 6HR MAX TEMP:  54;

$$

KSZ061>065-074>080-084>089-230100-
SOUTHWEST KANSAS

CITY           SKY/WX    TMP DP  RH WIND       PRES   REMARKS
DODGE CITY     CLEAR     40  19  43 NW9       29.64R
6HR MIN TEMP:  40; 6HR MAX TEMP:  53; 6HR PCP: TRACE;

ELKHART          N/A     42  22  45 NW6         N/A
GARDEN CITY    CLEAR     41  20  43 NW12      29.65R
6HR MIN TEMP:  41; 6HR MAX TEMP:  51;

GREAT BEND     PTCLDY    41  28  60 NW9       29.60R
LIBERAL        MOCLDY    39  19  45 NW8       29.70R
$$

KSZ066>073-081>083-090>101-230100-
SOUTHEAST KANSAS

CITY           SKY/WX    TMP DP  RH WIND       PRES   REMARKS
CHANUTE        CLEAR     43  39  86 W7        29.56R
6HR MIN TEMP:  43; 6HR MAX TEMP:  51; 6HR PCP:  0.03;

COFFEYVILLE    CLEAR     46  40  79 SW6       29.59R
6HR MIN TEMP:  46; 6HR MAX TEMP:  53; 6HR PCP: TRACE;

HUTCHINSON     PTCLDY    46  31  55 NW7       29.57R
6HR MIN TEMP:  41; 6HR MAX TEMP:  55;

MEDICINE LODGE   N/A     47  30  51 SW7       29.61R
NEWTON         CLEAR     45  32  61 W6        29.57R
PARSONS        CLEAR     43  39  86 SW5       29.58R
6HR MIN TEMP:  43; 6HR MAX TEMP:  51; 6HR PCP: TRACE;

WICHITA INTL   PTCLDY    42  34  73 SW6       29.57R
6HR MIN TEMP:  42; 6HR MAX TEMP:  55;

WICHITA JABRA  CLEAR     46  35  65 SW5       29.56R
6HR MIN TEMP:  46; 6HR MAX TEMP:  52;

WINFIELD       CLEAR     41  36  82 SW6       29.60R
6HR MIN TEMP:  41; 6HR MAX TEMP:  52;

$$

KSZ007>012-019>026-033>040-048>060-102>105-230100-
NORTHEAST KANSAS

CITY           SKY/WX    TMP DP  RH WIND       PRES   REMARKS
CONCORDIA      MOCLDY    44  32  62 NW7       29.53R
6HR MIN TEMP:  44; 6HR MAX TEMP:  51;

EMPORIA        MOCLDY    42  37  82 SW5       29.53R
6HR MIN TEMP:  42; 6HR MAX TEMP:  50;

LAWRENCE       CLOUDY    44  41  89 W7        29.50R
6HR MIN TEMP:  44; 6HR MAX TEMP:  49; 6HR PCP:  0.02;

MANHATTAN      CLOUDY    46  38  73 W5        29.53R
6HR MIN TEMP:  45; 6HR MAX TEMP:  49; 6HR PCP: TRACE;

OLATHE IND     CLOUDY    44  40  85 W9        29.50R
6HR MIN TEMP:  43; 6HR MAX TEMP:  48; 6HR PCP:  0.01;

OLATHE EXE     CLOUDY    44  40  85 W8        29.48R
6HR MIN TEMP:  44; 6HR MAX TEMP:  47; 6HR PCP:  0.02;

SALINA         PTCLDY    43  32  65 W8        29.55R
6HR MIN TEMP:  43; 6HR MAX TEMP:  54;

TOPEKA BILLARD MOCLDY    47  41  80 W7        29.50S
6HR MIN TEMP:  46; 6HR MAX TEMP:  50; 6HR PCP: TRACE;

TOPEKA FORBES  CLOUDY    46  39  76 W12       29.50R
6HR MIN TEMP:  45; 6HR MAX TEMP:  50; 6HR PCP: TRACE;

$$



USA.gov is the U.S. government's official web portal to all federal, state and local government web resources and services.